This is the latest recevied weather packets stored in our database for station/object KQ4NAL. If no packets are shown the sender has not sent any weather packets the latest 10 day(s).
| Time | Temp. | Humidity | Pressure | Rain* | Wind** | Luminosity | Snow |
|---|---|---|---|---|---|---|---|
| 1778057054 | 8.33° C | 99% | 1009.4 hPa | 1.78 mm | - | 0 W/m² | - |
| 1778056750 | 8.33° C | 99% | 1009 hPa | 0 mm | - | 0 W/m² | - |
| 1778056447 | 8.33° C | 99% | 1009.3 hPa | 0 mm | - | 0 W/m² | - |
| 1778056145 | 8.33° C | 99% | 1008.8 hPa | 0 mm | - | 0 W/m² | - |
| 1778055841 | 8.33° C | 99% | 1009 hPa | 0 mm | - | 0 W/m² | - |
| 1778055537 | 8.33° C | 99% | 1008.8 hPa | 0 mm | - | 0 W/m² | - |
| 1778055235 | 8.33° C | 99% | 1008.8 hPa | 0 mm | - | 0 W/m² | - |
| 1778054933 | 8.33° C | 99% | 1009 hPa | 0 mm | - | 0 W/m² | - |
| 1778054629 | 8.33° C | 99% | 1008.7 hPa | 0 mm | - | 0 W/m² | - |
| 1778054327 | 8.33° C | 99% | 1008.8 hPa | 0 mm | - | 0 W/m² | - |
| 1778054024 | 8.33° C | 99% | 1008.9 hPa | 0 mm | - | 0 W/m² | - |
| 1778053721 | 8.33° C | 99% | 1009 hPa | 0 mm | - | 0 W/m² | - |
| 1778053418 | 8.33° C | 99% | 1008.5 hPa | 0 mm | - | 0 W/m² | - |
| 1778053116 | 8.89° C | 99% | 1008.5 hPa | 0 mm | - | 0 W/m² | - |
| 1778052813 | 8.89° C | 99% | 1008.6 hPa | 3.05 mm | - | 0 W/m² | - |
| 1778052510 | 8.89° C | 99% | 1008 hPa | 6.1 mm | - | 0 W/m² | - |
| 1778052208 | 8.89° C | 99% | 1008.1 hPa | 8.89 mm | - | 0 W/m² | - |
| 1778051906 | 8.89° C | 99% | 1008.1 hPa | 6.1 mm | - | 0 W/m² | - |
| 1778051603 | 9.44° C | 99% | 1008.6 hPa | 1.78 mm | - | 0 W/m² | - |
| 1778051300 | 9.44° C | 99% | 1008.5 hPa | 1.78 mm | - | 0 W/m² | - |
| 1778050997 | 9.44° C | 99% | 1007.9 hPa | 3.05 mm | - | 0 W/m² | - |
| 1778050694 | 10° C | 99% | 1007.7 hPa | 1.27 mm | - | 0 W/m² | - |
| 1778050392 | 10° C | 99% | 1007.6 hPa | 0 mm | - | 0 W/m² | - |
| 1778050088 | 10.56° C | 99% | 1007.6 hPa | 1.78 mm | - | 0 W/m² | - |
| 1778049784 | 10.56° C | 99% | 1007.7 hPa | 3.05 mm | - | 0 W/m² | - |
* Rain latest hour (hover to see other rain measurements)
** Current wind speed in m/s (hover to see current wind gust speed)